TimeCDT,TemperatureF,Dew PointF,Humidity,Sea Level PressureIn,VisibilityMPH,Wind Direction,Wind SpeedMPH,Gust SpeedMPH,PrecipitationIn,Events,Conditions,WindDirDegrees,DateUTC
12:15 AM,56.7,49.1,76,29.95,10.0,ESE,5.8,-,N/A,,Clear,110,2013-09-24 05:15:00
12:35 AM,56.7,49.5,77,29.95,10.0,ESE,8.1,-,N/A,,Clear,110,2013-09-24 05:35:00
12:55 AM,56.7,49.3,76,29.95,10.0,Calm,Calm,-,N/A,,Clear,0,2013-09-24 05:55:00
1:15 AM,56.5,49.3,77,29.96,10.0,SE,3.5,-,N/A,,Clear,130,2013-09-24 06:15:00
1:35 AM,54.1,47.8,79,29.96,10.0,Calm,Calm,-,N/A,,Clear,0,2013-09-24 06:35:00
1:55 AM,51.8,46.4,82,29.96,10.0,East,3.5,-,N/A,,Clear,80,2013-09-24 06:55:00
2:15 AM,51.8,46.4,82,29.96,10.0,East,4.6,-,N/A,,Clear,90,2013-09-24 07:15:00
2:35 AM,54.1,48.2,80,29.95,10.0,East,5.8,-,N/A,,Clear,100,2013-09-24 07:35:00
2:55 AM,53.6,47.7,80,29.95,10.0,ESE,4.6,-,N/A,,Clear,110,2013-09-24 07:55:00
3:15 AM,52.9,46.9,80,29.95,10.0,East,4.6,-,N/A,,Clear,90,2013-09-24 08:15:00
3:35 AM,52.9,47.1,81,29.94,10.0,ESE,4.6,-,N/A,,Clear,120,2013-09-24 08:35:00
3:55 AM,52.9,46.8,80,29.94,10.0,ESE,3.5,-,N/A,,Clear,120,2013-09-24 08:55:00
4:15 AM,52.2,46.4,81,29.94,10.0,ESE,4.6,-,N/A,,Clear,110,2013-09-24 09:15:00
4:35 AM,51.8,45.9,80,29.94,10.0,ESE,4.6,-,N/A,,Clear,110,2013-09-24 09:35:00
4:55 AM,51.8,45.7,80,29.94,10.0,East,3.5,-,N/A,,Clear,90,2013-09-24 09:55:00
5:15 AM,51.8,46.0,81,29.94,10.0,ESE,4.6,-,N/A,,Clear,110,2013-09-24 10:15:00
5:35 AM,51.8,46.0,81,29.94,10.0,East,4.6,-,N/A,,Clear,100,2013-09-24 10:35:00
5:55 AM,51.8,46.2,81,29.94,10.0,ESE,4.6,-,N/A,,Clear,110,2013-09-24 10:55:00
6:15 AM,51.8,46.4,82,29.94,10.0,ESE,5.8,-,N/A,,Clear,110,2013-09-24 11:15:00
6:35 AM,51.8,46.4,82,29.94,10.0,ESE,5.8,-,N/A,,Clear,120,2013-09-24 11:35:00
6:55 AM,51.8,46.2,81,29.94,10.0,ESE,5.8,-,N/A,,Clear,120,2013-09-24 11:55:00
7:15 AM,51.8,46.4,82,29.94,10.0,ESE,5.8,-,N/A,,Clear,110,2013-09-24 12:15:00
7:35 AM,52.2,46.4,81,29.94,10.0,ESE,4.6,-,N/A,,Clear,120,2013-09-24 12:35:00
7:55 AM,54.1,47.7,79,29.94,10.0,ESE,6.9,-,N/A,,Clear,120,2013-09-24 12:55:00
8:15 AM,56.7,49.3,76,29.95,10.0,ESE,8.1,-,N/A,,Clear,110,2013-09-24 13:15:00
8:35 AM,56.7,48.2,73,29.95,10.0,ESE,8.1,-,N/A,,Clear,120,2013-09-24 13:35:00
8:55 AM,59.2,49.5,70,29.95,10.0,ESE,8.1,-,N/A,,Clear,110,2013-09-24 13:55:00
9:15 AM,61.7,50.2,66,29.95,10.0,ESE,8.1,-,N/A,,Clear,120,2013-09-24 14:15:00
9:35 AM,61.7,48.9,63,29.95,10.0,East,8.1,-,N/A,,Clear,90,2013-09-24 14:35:00
9:55 AM,63.0,49.5,61,29.95,10.0,East,10.4,-,N/A,,Clear,100,2013-09-24 14:55:00
10:15 AM,64.6,49.8,59,29.95,10.0,ESE,9.2,-,N/A,,Clear,120,2013-09-24 15:15:00
10:35 AM,66.7,50.7,56,29.95,10.0,East,9.2,-,N/A,,Clear,100,2013-09-24 15:35:00
10:55 AM,69.3,51.6,53,29.95,10.0,ESE,9.2,-,N/A,,Clear,110,2013-09-24 15:55:00
11:15 AM,71.8,52.9,51,29.95,10.0,ESE,10.4,-,N/A,,Clear,110,2013-09-24 16:15:00
11:35 AM,71.8,53.1,52,29.94,10.0,ESE,9.2,-,N/A,,Clear,120,2013-09-24 16:35:00
11:55 AM,71.8,52.3,50,29.93,10.0,ESE,11.5,-,N/A,,Clear,120,2013-09-24 16:55:00
12:15 PM,71.8,52.2,50,29.93,10.0,ESE,10.4,-,N/A,,Clear,110,2013-09-24 17:15:00
12:55 PM,77.0,53.2,44,29.92,10.0,East,13.8,-,N/A,,Clear,100,2013-09-24 17:55:00
1:15 PM,74.3,51.3,44,29.92,10.0,ESE,10.4,16.1,N/A,,Clear,110,2013-09-24 18:15:00
1:35 PM,74.7,47.7,38,29.91,10.0,East,12.7,-,N/A,,Clear,100,2013-09-24 18:35:00
1:55 PM,77.0,47.5,35,29.90,10.0,East,11.5,18.4,N/A,,Clear,100,2013-09-24 18:55:00
2:15 PM,77.0,48.7,37,29.90,10.0,ESE,13.8,18.4,N/A,,Clear,110,2013-09-24 19:15:00
2:35 PM,76.6,48.6,37,29.90,10.0,ESE,11.5,16.1,N/A,,Clear,120,2013-09-24 19:35:00
2:55 PM,74.8,47.5,38,29.91,10.0,ESE,10.4,-,N/A,,Clear,110,2013-09-24 19:55:00
3:15 PM,76.6,48.0,36,29.90,10.0,ESE,9.2,-,N/A,,Clear,110,2013-09-24 20:15:00
3:35 PM,74.3,46.8,37,29.90,10.0,ESE,8.1,-,N/A,,Clear,110,2013-09-24 20:35:00
3:55 PM,74.3,48.0,39,29.90,10.0,ESE,8.1,-,N/A,,Clear,110,2013-09-24 20:55:00
4:15 PM,74.3,48.0,39,29.90,10.0,ESE,9.2,-,N/A,,Clear,110,2013-09-24 21:15:00
4:35 PM,73.0,48.7,42,29.89,10.0,East,8.1,-,N/A,,Clear,100,2013-09-24 21:35:00
4:55 PM,73.0,48.7,42,29.90,10.0,ESE,8.1,-,N/A,,Clear,110,2013-09-24 21:55:00
5:15 PM,71.8,48.4,43,29.90,10.0,ESE,5.8,-,N/A,,Clear,110,2013-09-24 22:15:00
5:35 PM,71.8,49.1,45,29.90,10.0,East,4.6,-,N/A,,Clear,100,2013-09-24 22:35:00
5:55 PM,71.8,49.3,45,29.90,10.0,ESE,4.6,-,N/A,,Clear,110,2013-09-24 22:55:00
6:15 PM,71.8,50.0,46,29.91,10.0,ENE,3.5,-,N/A,,Clear,70,2013-09-24 23:15:00
6:35 PM,71.8,52.2,50,29.91,10.0,East,5.8,-,N/A,,Clear,80,2013-09-24 23:35:00
6:55 PM,67.5,51.8,57,29.90,10.0,ENE,5.8,-,N/A,,Clear,70,2013-09-24 23:55:00
7:15 PM,64.9,50.2,59,29.90,10.0,ENE,4.6,-,N/A,,Clear,60,2013-09-25 00:15:00
7:35 PM,63.5,50.5,63,29.91,10.0,NE,4.6,-,N/A,,Clear,40,2013-09-25 00:35:00
7:55 PM,61.7,50.9,68,29.92,7.0,NE,4.6,-,N/A,,Clear,40,2013-09-25 00:55:00
8:15 PM,61.7,51.6,69,29.92,7.0,NNE,5.8,-,N/A,,Scattered Clouds,30,2013-09-25 01:15:00
8:35 PM,62.2,51.4,68,29.92,10.0,ENE,4.6,-,N/A,,Scattered Clouds,60,2013-09-25 01:35:00
8:55 PM,61.7,51.3,69,29.92,10.0,NE,4.6,-,N/A,,Scattered Clouds,50,2013-09-25 01:55:00
9:15 PM,61.7,50.9,68,29.92,10.0,NE,4.6,-,N/A,,Clear,50,2013-09-25 02:15:00
9:35 PM,59.9,51.1,73,29.92,10.0,NE,4.6,-,N/A,,Clear,50,2013-09-25 02:35:00
9:55 PM,59.4,51.1,74,29.92,10.0,NE,4.6,-,N/A,,Clear,50,2013-09-25 02:55:00
10:15 PM,59.2,50.9,74,29.92,10.0,East,5.8,-,N/A,,Clear,90,2013-09-25 03:15:00
10:35 PM,57.0,50.2,78,29.92,10.0,NE,4.6,-,N/A,,Clear,40,2013-09-25 03:35:00
10:55 PM,56.7,49.8,78,29.92,10.0,NNE,3.5,-,N/A,,Clear,30,2013-09-25 03:55:00
11:15 PM,57.6,50.7,78,29.92,10.0,ENE,3.5,-,N/A,,Clear,70,2013-09-25 04:15:00
11:35 PM,56.7,50.2,79,29.93,10.0,NE,3.5,-,N/A,,Clear,50,2013-09-25 04:35:00
11:55 PM,56.7,50.7,80,29.93,10.0,Calm,Calm,-,N/A,,Clear,0,2013-09-25 04:55:00